Location: Newark
(49.8969°N, 3.3422°E)
Time: 23:54:02
(UTC+00:00)

Vanguard 1 Rocket - Pass Details

Date: 21 January 2020
Orbit: 650 x 4226 km, 34.3° (Epoch: 23 February)

Event Time Altitude Azimuth Distance (km) Brightness Sun altitude
Rises 14:32:54 0° 266° (W) 5,863 12.2 12.2°
Reaches altitude 10° 14:36:24 10° 260° (W) 5,263 12.2 11.9°
Maximum altitude 14:51:54 42° 197° (SSW) 4,536 11.9 10.3°
Drops below altitude 10° 15:14:29 10° 137° (SE) 7,425 12.1 7.8°
Sets 15:20:48 0° 131° (SE) 8,381 12.2 7.0°
